Location: Hac?musa Deresi
(39.1694°N, 32.2508°E)
Time: 01:01:26
(UTC+00:00)

SL-8 R/B - Pass Details

Date: 22 April 2026
Orbit: 646 x 656 km, 48.4° (Epoch: 9 May)

Event Time Altitude Azimuth Distance (km) Brightness Sun altitude
Rises 17:05:01 0° 238° (WSW) 2,954 7.6 -6.3°
Reaches altitude 10° 17:07:21 10° 239° (WSW) 2,044 6.8 -6.7°
Maximum altitude 17:12:05 83° 327° (NNW) 656 3.8 -7.6°
Drops below altitude 10° 17:16:48 10° 57° (ENE) 2,046 5.9 -8.4°
Sets 17:19:09 0° 58° (ENE) 2,957 6.7 -8.8°
